LANDSAT 8

Last updated on Wed Oct 29 2025 00:02:30 GMT+0000 (Coordinated Universal Time)

1 39084U 13008A 25301.60917367 .00000584 00000+0 13961-3 0 9995 2 39084 98.2122 10.3364 0001297 88.2699 271.8648 14.57103578664179
UTC large
Height (km)
Speed (km/s)
/
Latitude / Longitude
Inclination (degrees)
Orbital Period (minutes)
Azimuth
Elevation
Range (km)
Doppler Factor

Next 0 passes for location: London (51.5072 / 0.1276)

Sorry there are no passes over London.